sat.trackr.live / text

‹ back to catalog

STARLINK-11716 [DTC]

NORAD 64133 · 2025-111L

PAYLOAD ACTIVE UNKNOWN

§ Identity

Operator
Country
US
Launch date
2025-05-24
Launch site
AFETR
Launch vehicle
Mass (kg)
RCS (m²)

Purposes: comms

External: N2YO · Heavens-Above · Gunter

§ Orbital elements

Epoch: 2026-09-20T22:28:20.800704Z

Period
91.67 min
Inclination
42.9989°
Eccentricity
0.0001337
Mean motion
15.70858264 rev/d
Perigee alt
355.5 km
Apogee alt
357.3 km
Semi-major
6,734.6 km
B*
2.6312e-4
RAAN
237.2044°
Arg perigee
253.8338°
Mean anomaly
106.2382°
Rev number
7,739

§ Raw data

STARLINK-11716 [DTC]1 64133U 25111L   26263.93635186  .00033476  00000+0  26312-3 0  99962 64133  42.9989 237.2044 0001337 253.8338 106.2382 15.70858264 77392

JSON: /api/v1/satellites/64133 · /tle

For live sub-satellite position, see the globe view (requires WebGL).

§ Visibility from observer

Set your observer location to see the next 7 days of passes ≥ 10°. The values pass through the URL so the page stays shareable.

No JS? Fill the form by hand. The geolocation button needs JavaScript.